Location: Devore Heights
(34.2372°N, 117.4156°W)
Time: 03:43:26
(UTC+00:00)

deb Explorer IX - Pass Details

Date: 20 September 2024
Orbit: 504 x 828 km, 38.7° (Epoch: 05 October)

Event Time Altitude Azimuth Distance (km) Brightness Sun altitude
Rises 03:12:43 0° 272° (W) 3,349 ? -17.8°
Reaches altitude 10° 03:15:15 10° 277° (W) 2,445 ? -18.3°
Maximum altitude 03:21:03 57° 355° (N) 1,002 ? -19.5°
Enters shadow 03:24:09 27° 63° (ENE) 1,568 ? -20.1°
Drops below altitude 10° 03:26:53 10° 74° (ENE) 2,469 - -20.7°
Sets 03:29:28 0° 78° (ENE) 3,384 - -21.2°
